Location: ??????
(55.2000°N, 38.3000°E)
Time: 01:37:07
(UTC+00:00)

COSMOS 2455 - Pass Details

Date: 15 November 2025
Orbit: 898 x 910 km, 67.1° (Epoch: 12 December)

Event Time Altitude Azimuth Distance (km) Brightness Sun altitude
Exits shadow 04:12:20 - 310° (NW) 2,886 4.9 -6.8°
Reaches altitude 10° 04:13:14 10° 314° (NW) 2,607 4.7 -6.7°
Maximum altitude 04:18:27 29° 14° (NNE) 1,613 4.1 -6.0°
Drops below altitude 10° 04:23:39 10° 73° (ENE) 2,604 6.0 -5.4°
Sets 04:26:32 0° 85° (E) 3,544 7.1 -5.0°
